Overview Statistics Trail Chart Weather Telemetry Raw packets
 

This is the latest recevied weather packets stored in our database for station/object HS6NYW-3. If no packets are shown the sender has not sent any weather packets the latest 10 day(s).

<< 1 2 3 4 >>
Time Temp. Humidity Pressure Rain* Wind** Luminosity Snow
1788586455 41.11° C 42% 991 hPa - - 0 W/m² -
1788585830 40.56° C 44% 991 hPa - - 0 W/m² -
1788585208 41.11° C 43% 991 hPa - - 0 W/m² -
1788584583 40.56° C 44% 991 hPa - - 0 W/m² -
1788583961 40° C 44% 992 hPa - - 0 W/m² -
1788583335 40° C 47% 992 hPa - - 0 W/m² -
1788582717 39.44° C 48% 992 hPa - - 0 W/m² -
1788582072 39.44° C 49% 992 hPa - - 0 W/m² -
1788581550 38.89° C 49% 993 hPa - - 0 W/m² -
1788580927 40° C 47% 993 hPa - - 0 W/m² -
1788580304 40° C 46% 993 hPa - - 0 W/m² -
1788579682 39.44° C 45% 993 hPa - - 0 W/m² -
1788579060 40° C 45% 993 hPa - - 0 W/m² -
1788578435 38.89° C 47% 993 hPa - - 0 W/m² -
1788577812 40° C 46% 993 hPa - - 0 W/m² -
1788577188 39.44° C 47% 993 hPa - - 0 W/m² -
1788577070 39.44° C 47% 993 hPa - - 0 W/m² -
1788576447 39.44° C 47% 993 hPa - - 0 W/m² -
1788575824 39.44° C 48% 993 hPa - - 0 W/m² -
1788575200 39.44° C 47% 993 hPa - - 0 W/m² -
1788574578 38.33° C 50% 993 hPa - - 0 W/m² -
1788573952 38.33° C 51% 993 hPa - - 0 W/m² -
1788573328 37.78° C 51% 993 hPa - - 0 W/m² -
1788572705 37.78° C 51% 993 hPa - - 0 W/m² -
1788572083 37.78° C 52% 993 hPa - - 0 W/m² -

* Rain since midnight (hover to see other rain measurements)
** Current wind speed in m/s (hover to see current wind gust speed)